Location: Newark
(44.3681°N, 100.3364°W)
Time: 06:07:56
(UTC+00:00)

Explorer 7 - Pass Details

Date: 24 February 2020
Orbit: 485 x 679 km, 50.3° (Epoch: 07 April)

Event Time Altitude Azimuth Distance (km) Brightness Sun altitude
Rises 23:04:06 0° 297° (WNW) 2,819 11.0 12.3°
Reaches altitude 10° 23:06:27 10° 297° (WNW) 1,881 10.2 11.9°
Maximum altitude 23:10:44 86° 209° (SSW) 553 7.1 11.2°
Drops below altitude 10° 23:14:44 10° 121° (ESE) 1,758 9.1 10.6°
Sets 23:16:52 0° 121° (ESE) 2,616 9.9 10.2°
